• In Czech Republic
  • List of Countries
  • For 7 days
  • Water Temperature
  • Satellite Maps
  • Weather Map
  • Weather Widgets
  • user-avatar
    Login

    Hourly Weather Chester

    Today, 13 December, Wednesday

    Time Temperature Precipitation Wind Pressure Humidity
    00:00 +3°C° 0 mm 4 mps 749 mmHg 94%
    01:00 +3°C° 0 mm 4 mps 749 mmHg 93%
    02:00 +3°C° 0 mm 4 mps 748 mmHg 92%
    03:00 +3°C° 0 mm 4 mps 748 mmHg 92%
    04:00 +2°C° 0.2 mm 5 mps 748 mmHg 92%
    05:00 +3°C° 0.2 mm 5 mps 747 mmHg 93%
    06:00 +3°C° 0.2 mm 5 mps 747 mmHg 93%
    07:00 +3°C° 0.2 mm 5 mps 746 mmHg 93%
    08:00 +3°C° 0.2 mm 6 mps 745 mmHg 94%
    09:00 +3°C° 0.2 mm 6 mps 744 mmHg 94%
    10:00 +4°C° 0.9 mm 7 mps 743 mmHg 93%
    11:00 +4°C° 0.9 mm 7 mps 742 mmHg 92%
    12:00 +5°C° 0.9 mm 8 mps 741 mmHg 90%
    13:00 +4°C° 0.4 mm 8 mps 741 mmHg 85%
    14:00 +2°C° 0.4 mm 8 mps 741 mmHg 79%
    15:00 +2°C° 0.4 mm 8 mps 741 mmHg 73%
    16:00 +1°C° 0.3 mm 8 mps 741 mmHg 75%
    17:00 +2°C° 0.3 mm 7 mps 741 mmHg 77%
    18:00 0°C° 0.3 mm 7 mps 741 mmHg 79%
    19:00 0°C° 0.4 mm 7 mps 741 mmHg 78%
    20:00 0°C° 0.4 mm 8 mps 741 mmHg 76%
    21:00 0°C° 0.4 mm 8 mps 741 mmHg 75%
    22:00 0°C° 0.3 mm 8 mps 742 mmHg 75%
    23:00 0°C° 0.3 mm 8 mps 742 mmHg 75%

    Tomorrow, 14 December, Thursday

    Time Temperature Precipitation Wind Pressure Humidity
    00:00 0°C° 0.3 mm 8 mps 742 mmHg 76%
    01:00 0°C° 0.3 mm 8 mps 742 mmHg 77%
    02:00 0°C° 0.3 mm 8 mps 742 mmHg 77%
    03:00 0°C° 0.3 mm 8 mps 742 mmHg 78%
    04:00 0°C° 0.3 mm 8 mps 742 mmHg 78%
    05:00 0°C° 0.3 mm 8 mps 742 mmHg 78%
    06:00 0°C° 0.3 mm 8 mps 742 mmHg 78%
    07:00 0°C° 0.2 mm 7 mps 741 mmHg 78%
    08:00 0°C° 0.2 mm 7 mps 741 mmHg 78%
    09:00 0°C° 0.2 mm 7 mps 741 mmHg 79%
    10:00 0°C° 0.1 mm 7 mps 741 mmHg 78%
    11:00 +2°C° 0.1 mm 7 mps 741 mmHg 78%
    12:00 +2°C° 0.1 mm 7 mps 741 mmHg 78%
    13:00 +2°C° 0.2 mm 7 mps 740 mmHg 79%
    14:00 +2°C° 0.2 mm 7 mps 740 mmHg 80%
    15:00 +2°C° 0.2 mm 7 mps 739 mmHg 81%
    16:00 +2°C° 0.6 mm 6 mps 739 mmHg 82%
    17:00 +2°C° 0.6 mm 6 mps 738 mmHg 84%
    18:00 +2°C° 0.6 mm 5 mps 738 mmHg 85%
    19:00 +2°C° 0.2 mm 5 mps 738 mmHg 87%
    20:00 +2°C° 0.2 mm 5 mps 738 mmHg 88%
    21:00 +2°C° 0.2 mm 5 mps 738 mmHg 89%
    22:00 +1°C° 0.3 mm 4 mps 739 mmHg 89%
    23:00 +1°C° 0.3 mm 4 mps 739 mmHg 90%

    Day after tomorrow, 15 December, Friday

    Time Temperature Precipitation Wind Pressure Humidity
    00:00 +1°C° 0.3 mm 4 mps 740 mmHg 90%
    01:00 +1°C° 0.5 mm 4 mps 741 mmHg 89%
    02:00 +1°C° 0.5 mm 4 mps 742 mmHg 89%
    03:00 +1°C° 0.5 mm 4 mps 743 mmHg 88%
    04:00 +1°C° 0 mm 4 mps 744 mmHg 88%
    05:00 0°C° 0 mm 4 mps 745 mmHg 88%
    06:00 0°C° 0 mm 5 mps 747 mmHg 88%
    07:00 0°C° 0 mm 4 mps 748 mmHg 88%
    08:00 0°C° 0 mm 4 mps 749 mmHg 88%
    09:00 +1°C° 0 mm 4 mps 750 mmHg 88%
    10:00 +1°C° 0 mm 4 mps 751 mmHg 87%
    11:00 +3°C° 0 mm 4 mps 752 mmHg 86%
    12:00 +3°C° 0 mm 5 mps 752 mmHg 85%
    13:00 +3°C° 0 mm 4 mps 753 mmHg 84%
    14:00 +3°C° 0 mm 4 mps 753 mmHg 82%
    15:00 +3°C° 0 mm 4 mps 754 mmHg 81%
    16:00 +1°C° 0 mm 4 mps 754 mmHg 80%
    17:00 +1°C° 0 mm 4 mps 755 mmHg 80%
    18:00 0°C° 0 mm 4 mps 756 mmHg 79%
    19:00 0°C° 0 mm 4 mps 756 mmHg 79%
    20:00 0°C° 0 mm 4 mps 757 mmHg 79%
    21:00 0°C° 0 mm 4 mps 757 mmHg 79%
    22:00 0°C° 0 mm 4 mps 757 mmHg 79%
    23:00 0°C° 0 mm 4 mps 758 mmHg 80%

    16 December, Saturday

    Time Temperature Precipitation Wind Pressure Humidity
    00:00 0°C° 0 mm 4 mps 758 mmHg 80%
    01:00 0°C° 0 mm 4 mps 758 mmHg 81%
    02:00 0°C° 0 mm 4 mps 759 mmHg 81%
    03:00 0°C° 0 mm 4 mps 759 mmHg 81%
    04:00 0°C° 0 mm 4 mps 759 mmHg 81%
    05:00 0°C° 0 mm 4 mps 760 mmHg 81%
    06:00 0°C° 0 mm 4 mps 760 mmHg 80%
    07:00 0°C° 0 mm 4 mps 761 mmHg 80%
    08:00 0°C° 0 mm 4 mps 762 mmHg 80%
    09:00 0°C° 0 mm 4 mps 762 mmHg 79%
    10:00 +1°C° 0 mm 4 mps 763 mmHg 79%
    11:00 +2°C° 0 mm 3 mps 763 mmHg 78%
    12:00 +3°C° 0 mm 3 mps 763 mmHg 77%
    13:00 +3°C° 0 mm 3 mps 763 mmHg 79%
    14:00 +3°C° 0 mm 3 mps 763 mmHg 81%
    15:00 +3°C° 0 mm 3 mps 764 mmHg 83%
    16:00 +3°C° 0.2 mm 4 mps 764 mmHg 84%
    17:00 +3°C° 0.2 mm 4 mps 764 mmHg 86%
    18:00 +1°C° 0.2 mm 4 mps 765 mmHg 87%
    19:00 +3°C° 0.2 mm 4 mps 765 mmHg 88%
    20:00 +3°C° 0.2 mm 4 mps 766 mmHg 89%
    21:00 +3°C° 0.2 mm 3 mps 766 mmHg 91%
    22:00 +3°C° 0.1 mm 3 mps 766 mmHg 91%
    23:00 +3°C° 0.1 mm 3 mps 766 mmHg 92%

    17 December, Sunday

    Time Temperature Precipitation Wind Pressure Humidity
    00:00 +2°C° 0.1 mm 3 mps 766 mmHg 92%
    01:00 +3°C° 0 mm 2 mps 767 mmHg 92%
    02:00 +3°C° 0 mm 2 mps 767 mmHg 92%
    03:00 +3°C° 0 mm 2 mps 767 mmHg 91%
    04:00 +3°C° 0 mm 2 mps 767 mmHg 91%
    05:00 +3°C° 0 mm 2 mps 767 mmHg 91%
    06:00 +3°C° 0 mm 2 mps 767 mmHg 91%
    07:00 +3°C° 0 mm 2 mps 767 mmHg 92%
    08:00 +3°C° 0 mm 3 mps 768 mmHg 93%
    09:00 +3°C° 0 mm 3 mps 768 mmHg 93%
    10:00 +3°C° 0 mm 3 mps 767 mmHg 93%
    11:00 +4°C° 0 mm 4 mps 767 mmHg 93%
    12:00 +5°C° 0 mm 4 mps 767 mmHg 92%
    13:00 +5°C° 0 mm 4 mps 766 mmHg 93%
    14:00 +6°C° 0 mm 5 mps 766 mmHg 93%
    15:00 +6°C° 0 mm 5 mps 766 mmHg 93%
    16:00 +6°C° 0.4 mm 5 mps 765 mmHg 93%
    17:00 +5°C° 0.4 mm 6 mps 765 mmHg 93%
    18:00 +6°C° 0.4 mm 7 mps 764 mmHg 93%
    19:00 +6°C° 0.4 mm 7 mps 764 mmHg 93%
    20:00 +8°C° 0.4 mm 7 mps 764 mmHg 92%
    21:00 +9°C° 0.4 mm 7 mps 763 mmHg 91%
    22:00 +9°C° 0.1 mm 7 mps 764 mmHg 92%
    23:00 +9°C° 0.1 mm 7 mps 764 mmHg 92%

    18 December, Monday

    Time Temperature Precipitation Wind Pressure Humidity
    00:00 +10°C° 0.1 mm 6 mps 764 mmHg 93%
    01:00 +9°C° 0 mm 6 mps 764 mmHg 92%
    02:00 +9°C° 0 mm 5 mps 765 mmHg 91%
    03:00 +8°C° 0 mm 5 mps 765 mmHg 91%
    04:00 +8°C° 0 mm 4 mps 766 mmHg 91%
    05:00 +7°C° 0 mm 4 mps 766 mmHg 91%
    06:00 +7°C° 0 mm 3 mps 767 mmHg 92%
    07:00 +7°C° 0 mm 3 mps 767 mmHg 92%
    08:00 +7°C° 0 mm 3 mps 768 mmHg 93%
    09:00 +7°C° 0 mm 3 mps 768 mmHg 93%
    10:00 +7°C° 0 mm 2 mps 769 mmHg 91%
    11:00 +8°C° 0 mm 2 mps 769 mmHg 90%
    12:00 +8°C° 0 mm 2 mps 770 mmHg 88%
    13:00 +8°C° 0 mm 2 mps 770 mmHg 89%
    14:00 +8°C° 0 mm 2 mps 770 mmHg 90%
    15:00 +8°C° 0 mm 1 mps 770 mmHg 91%
    16:00 +8°C° 0 mm 1 mps 770 mmHg 92%
    17:00 +7°C° 0 mm 1 mps 771 mmHg 92%
    18:00 +7°C° 0 mm 1 mps 771 mmHg 93%
    19:00 +6°C° 0 mm 1 mps 772 mmHg 93%
    20:00 +6°C° 0 mm 1 mps 772 mmHg 92%
    21:00 +6°C° 0 mm 1 mps 772 mmHg 92%
    22:00 +6°C° 0 mm 1 mps 772 mmHg 92%
    23:00 +6°C° 0 mm 1 mps 772 mmHg 91%
    Show more